Погода в Василевке

Украина / Днепропетровская область     48°42′41″N   35°33′28″E
темп.,
°C
ветер,
м/с
пор.,
м/с
влажн.,
%
обл.,
%
осадки,
мм/ч
давл.,
гПа
погр.,
м
28 сентября, вт
вт2800:00+9с368189 0.0 1020118
03:00+11ссв3774100 0.1 1021316
06:00+10с3675100 0.0 1021264
09:00+11ссв4662100 0.0 1022432
12:00+15ссв4545100 0.0 10221660
15:00+16ссв4543100 0.1 10221823
18:00+14ссв5750100 0.0 1023527
21:00+11св5107299 0.1 1025499
29 сентября, ср
ср2900:00+9св5117656 0.0 1027368
03:00+7св49795 0.0 1028250
06:00+6св510875 0.0 1029263
09:00+10св686816 0.0 1029692
12:00+12всв6653100 0.0 10301487
15:00+12всв5649100 0.0 10291630
18:00+12св46462 0.0 1030423
21:00+8св49530 0.0 1031157
30 сентября, чт
чт3000:00+6св48540 0.0 1031143
03:00+5св46605 0.0 1032105
06:00+4св466445 0.0 1032106
09:00+9всв57475 0.0 1033419
12:00+13всв55315 0.0 10331330
15:00+15всв45270 0.0 10321620
18:00+12всв34350 0.0 103259
21:00+9всв35450 0.0 103379
1 октября, пт
пт100:00+7всв34500 0.0 103456
03:00+6всв34530 0.0 103445
06:00+5всв34570 0.0 103447
09:00+10в35420 0.0 1035332
12:00+15в45310 0.0 10341426
15:00+16в44280 0.0 10331683
18:00+13в34360 0.0 103353
21:00+10в35460 0.0 103367
2 октября, сб
сб200:00+8в35500 0.0 103367
03:00+7в33530 0.0 103334
06:00+6в34560 0.0 103351
09:00+11вюв47410 0.0 1033392
12:00+15вюв67315 0.0 10321357
15:00+17вюв66250 0.0 10301590
18:00+14в47320 0.0 1030134
21:00+10в410445 0.0 1030185